GAOFEN-8

Last updated on Tue Oct 15 2024 00:02:24 GMT+0000 (Coordinated Universal Time)

1 40701U 15030A 24288.54563426 .00023738 00000+0 95194-3 0 9993 2 40701 97.6679 85.8254 0011226 220.1680 139.8728 15.24949686517826
UTC large
Height (km)
Speed (km/s)
/
Latitude / Longitude
Inclination (degrees)
Orbital Period (minutes)
Azimuth
Elevation
Range (km)
Doppler Factor

Next 0 passes for location: London (51.5072 / 0.1276)

Sorry there are no passes over London.